[[{"header":{"parameterUnit":"m.s-1","parameterCategory":1,"la1":30.2992,"la2":30.254,"lo1":-89.0895,"lo2":-89.0443,"dy":0.0025,"dx":0.0025,"nx":19,"ny":19,"refTime":"2026-04-24T21:00:00:Z","depth":0,"parameterNumber":2,"parameterNumberName":"U-component_of_WINDS"},"data":[0,0,0,-0.0456,-0.0454,-0.0331,-0.033,-0.0195,-0.0194,0,0,0,0,0,0,0,0,0,0,0,-0.0508,-0.0508,-0.0456,-0.0454,-0.0331,-0.033,-0.0195,-0.0194,0,0,0,0,0,0,0,0,0,0,0,-0.0509,-0.0508,-0.0508,-0.0453,-0.0331,-0.033,-0.0195,-0.028,0,0,0,0,0,0,0,0,0,0,-0.0395,-0.046,-0.0508,-0.0508,-0.0453,-0.0331,-0.033,-0.0283,-0.0275,-0.0261,0,-0.0254,0,-0.0222,-0.0186,-0.0186,0,0,0,-0.0442,-0.0468,-0.042,-0.0508,-0.0452,-0.0331,-0.0383,-0.0278,-0.0268,-0.0249,-0.0252,-0.0246,-0.022,-0.0186,-0.0185,-0.0144,-0.0145,0,0,-0.0449,-0.0495,-0.0427,-0.0414,-0.0436,-0.0387,-0.0379,-0.0272,-0.0278,-0.0252,-0.0243,-0.0217,-0.0185,-0.0184,-0.0144,-0.0144,0,0,0,-0.0476,-0.05,-0.0454,-0.042,-0.0396,-0.0384,-0.0375,-0.0283,-0.0264,-0.0241,-0.0216,-0.0184,-0.0183,-0.0144,-0.0144,-0.0206,0,0,0,-0.048,-0.0516,-0.0458,-0.0485,-0.0399,-0.0339,-0.0389,-0.0271,-0.0258,-0.0217,-0.0184,-0.0182,-0.0143,-0.0144,-0.0203,-0.0228,0,0,0,-0.0511,-0.052,-0.0507,-0.0488,-0.0437,-0.0339,-0.0314,-0.0267,-0.0243,-0.0186,-0.0181,-0.0143,-0.0144,-0.0201,-0.0224,-0.0228,0,0,0,-0.0558,-0.0567,-0.0509,-0.0507,-0.0438,-0.0379,-0.0314,-0.0268,-0.0226,-0.0184,-0.0143,-0.0144,-0.02,-0.0221,-0.0226,-0.024,-0.025,0,0,-0.0594,-0.0573,-0.0568,-0.0512,-0.0475,-0.0394,-0.0363,-0.0283,-0.0235,-0.0177,-0.0175,-0.0204,-0.0223,-0.0227,-0.0293,-0.0302,0,0,0,-0.0594,-0.0592,-0.0571,-0.0533,-0.047,-0.0416,-0.0335,-0.0303,-0.0251,-0.0215,-0.0206,-0.0216,-0.0216,-0.0221,-0.0228,-0.0224,-0.0148,-0.0148,-0.0148,-0.0714,-0.065,-0.0636,-0.0556,-0.0519,-0.0431,-0.0395,-0.0337,-0.0287,-0.0285,-0.0267,-0.0315,-0.0322,-0.0327,-0.0324,-0.027,-0.027,-0.027,-0.027,-0.076,-0.0744,-0.0671,-0.0631,-0.0562,-0.0528,-0.0441,-0.0404,-0.036,-0.0325,-0.0322,-0.0288,-0.0339,-0.0332,-0.0274,-0.0274,-0.0273,-0.0273,-0.0272,-0.0831,-0.0812,-0.0772,-0.0705,-0.0661,-0.0578,-0.0537,-0.0476,-0.0419,-0.0416,-0.0389,-0.0387,-0.0377,-0.0407,-0.0407,-0.0407,-0.0408,-0.0408,-0.0408,-0.0921,-0.0873,-0.0846,-0.0775,-0.0739,-0.0684,-0.0591,-0.0553,-0.0495,-0.0454,-0.0453,-0.04,-0.0356,-0.0345,-0.041,-0.041,-0.0409,-0.0409,-0.0409,-0.0991,-0.0963,-0.0923,-0.0887,-0.0794,-0.0751,-0.0672,-0.0599,-0.0558,-0.0539,-0.0484,-0.0462,-0.0436,-0.0429,-0.042,-0.05,-0.05,-0.05,-0.05,-0.105,-0.1029,-0.0971,-0.0915,-0.0854,-0.0776,-0.0728,-0.0653,-0.0572,-0.0541,-0.052,-0.0503,-0.0499,-0.0475,-0.0467,-0.0458,-0.0545,-0.0545,-0.0545,-0.1088,-0.1057,-0.103,-0.0949,-0.087,-0.0803,-0.0754,-0.0691,-0.0593,-0.0546,-0.0515,-0.0514,-0.0484,-0.0479,-0.0434,-0.0424,-0.0405,0,0]},{"header":{"parameterUnit":"m.s-1","parameterCategory":1,"la1":30.2992,"la2":30.254,"lo1":-89.0895,"lo2":-89.0443,"dy":0.0025,"dx":0.0025,"nx":19,"ny":19,"refTime":"2026-04-24T21:00:00:Z","depth":0,"parameterNumber":3,"parameterNumberName":"V-component_of_WINDS"},"data":[0,0,0,5.3517,5.3519,5.3601,5.3601,5.3699,5.37,0,0,0,0,0,0,0,0,0,0,0,5.3492,5.3493,5.3517,5.3519,5.3601,5.3601,5.3699,5.37,0,0,0,0,0,0,0,0,0,0,0,5.3492,5.3493,5.3494,5.352,5.3601,5.3601,5.3699,5.3639,0,0,0,0,0,0,0,0,0,0,5.356,5.3537,5.3493,5.3494,5.352,5.3601,5.3601,5.3636,5.3643,5.3661,0,5.368,0,5.3692,5.3707,5.3707,0,0,0,5.3519,5.3532,5.3555,5.3494,5.3521,5.3601,5.3564,5.364,5.3647,5.367,5.3681,5.3685,5.3694,5.3707,5.3708,5.3827,5.3827,0,0,5.3514,5.3506,5.355,5.356,5.3551,5.3561,5.3566,5.3644,5.3655,5.3682,5.3687,5.3695,5.3708,5.3709,5.3826,5.3827,0,0,0,5.3502,5.3502,5.3524,5.3556,5.3571,5.3564,5.357,5.3651,5.3659,5.3688,5.3697,5.3709,5.371,5.3825,5.3826,5.3851,0,0,0,5.3499,5.3495,5.3522,5.3517,5.357,5.3613,5.3575,5.3654,5.3663,5.3696,5.3709,5.3711,5.3825,5.3826,5.3849,5.3863,0,0,0,5.3487,5.3494,5.3506,5.3517,5.3552,5.3612,5.3624,5.3656,5.3668,5.3707,5.3711,5.3824,5.3826,5.3847,5.386,5.3895,0,0,0,5.3471,5.3522,5.3506,5.3566,5.3552,5.3627,5.3624,5.3679,5.3716,5.3709,5.3825,5.3826,5.3846,5.3858,5.3893,5.3924,5.3936,0,0,5.353,5.3529,5.3565,5.3553,5.3631,5.3615,5.3695,5.3734,5.3742,5.3797,5.38,5.385,5.386,5.3894,5.4002,5.4012,0,0,0,5.3581,5.3607,5.3629,5.3667,5.3701,5.3732,5.376,5.3775,5.3823,5.377,5.3871,5.3877,5.3897,5.3913,5.3921,5.394,5.3833,5.3832,5.3832,5.3651,5.3665,5.3727,5.3752,5.3787,5.3819,5.3849,5.3873,5.3871,5.3895,5.3912,5.3977,5.3994,5.4,5.402,5.3928,5.3928,5.3928,5.3928,5.3741,5.3782,5.3785,5.3846,5.386,5.3909,5.3942,5.394,5.3988,5.3964,5.3982,5.3957,5.401,5.4028,5.393,5.393,5.393,5.3929,5.3929,5.379,5.3812,5.3833,5.3892,5.3935,5.3956,5.4005,5.4013,5.402,5.4039,5.4059,5.4059,5.4061,5.4048,5.4048,5.4048,5.4048,5.4049,5.4049,5.3833,5.3856,5.3898,5.3943,5.3971,5.4007,5.4042,5.4068,5.4098,5.41,5.4101,5.4098,5.4013,5.3993,5.4052,5.4052,5.4051,5.4051,5.4051,5.3921,5.3904,5.3969,5.3998,5.4053,5.4096,5.4108,5.4161,5.4183,5.4207,5.4202,5.4137,5.4134,5.4128,5.4111,5.4198,5.4198,5.4198,5.4198,5.3964,5.3965,5.4037,5.4082,5.4127,5.4146,5.4218,5.4245,5.427,5.4285,5.4273,5.4251,5.4244,5.4246,5.4237,5.4222,5.4334,5.4334,5.4335,5.402,5.4027,5.4089,5.4119,5.4163,5.4201,5.427,5.4319,5.4343,5.434,5.4297,5.4291,5.4256,5.4244,5.424,5.4226,5.4198,0,0]}]]